FW6569 Weather Reports


time (UTC)temp
C
wind
direction
speed
KPH
gust
KPH
rain 1hr
cm
rain 24hr
cm
rain mn
cm
humidity
%
barometer
mb
20260903215522 35 305 1.6 3.2 0.00 0.00 0.00 56 1015.6
20260903214521 35 216 6.4 12.9 0.00 0.00 0.00 53 1015.6
20260903213522 35 212 4.8 9.7 0.00 0.00 0.00 54 1015.6
20260903212522 35 277 4.8 11.3 0.00 0.00 0.00 53 1015.7
20260903211522 35 237 4.8 11.3 0.00 0.00 0.00 54 1015.7
20260903210521 35 221 8.0 14.5 0.00 0.00 0.00 53 1015.8
20260903205541 35 233 4.8 9.7 0.00 0.00 0.00 53 1015.9
20260903204522 36 232 6.4 9.7 0.00 0.00 0.00 52 1016.0
20260903203551 36 216 6.4 8.0 0.00 0.00 0.00 54 1016.1
20260903202522 35 215 6.4 11.3 0.00 0.00 0.00 55 1016.2
20260903201532 36 234 8.0 12.9 0.00 0.00 0.00 53 1016.3
20260903200521 36 252 4.8 6.4 0.00 0.00 0.00 53 1016.4
20260903195521 35 227 6.4 12.9 0.00 0.00 0.00 54 1016.6
20260903194521 35 206 8.0 12.9 0.00 0.00 0.00 53 1016.7
20260903193522 35 276 6.4 9.7 0.00 0.00 0.00 56 1016.9
20260903192542 35 272 4.8 9.7 0.00 0.00 0.00 54 1017.0
20260903191621 34 262 4.8 6.4 0.00 0.00 0.00 59 1017.1
20260903190532 33 252 3.2 6.4 0.00 0.00 0.00 60 1017.2
20260903185522 33 233 4.8 9.7 0.00 0.00 0.00 60 1017.2
20260903184522 35 203 9.7 12.9 0.00 0.00 0.00 59 1017.2
20260903183542 34 242 4.8 9.7 0.00 0.00 0.00 56 1017.2
20260903182652 34 262 8.0 16.1 0.00 0.00 0.00 56 1017.3
20260903181541 34 228 6.4 11.3 0.00 0.00 0.00 56 1017.3
20260903180542 34 226 4.8 6.4 0.00 0.00 0.00 56 1017.4
20260903175712 33 217 8.0 16.1 0.00 0.00 0.00 59 1017.5
20260903174532 33 213 8.0 17.7 0.00 0.00 0.00 60 1017.6
20260903173542 33 195 8.0 9.7 0.00 0.00 0.00 60 1017.7
20260903172522 33 183 8.0 9.7 0.00 0.00 0.00 59 1017.8
20260903171602 33 218 8.0 12.9 0.00 0.00 0.00 61 1017.9
20260903170633 33 193 9.7 12.9 0.00 0.00 0.00 62 1018.1
20260903165542 33 183 8.0 9.7 0.00 0.03 0.00 62 1018.1
20260903164522 33 208 8.0 9.7 0.00 0.03 0.00 63 1018.2
20260903163542 32 223 6.4 14.5 0.00 0.03 0.00 65 1018.3
20260903162652 32 212 8.0 11.3 0.00 0.03 0.00 63 1018.4
20260903161602 31 204 9.7 12.9 0.00 0.03 0.00 66 1018.4
20260903160522 32 205 6.4 8.0 0.00 0.03 0.00 64 1018.5
20260903155702 32 228 8.0 16.1 0.00 0.03 0.00 65 1018.5
20260903154603 32 215 8.0 12.9 0.00 0.03 0.00 68 1018.4
20260903153532 31 216 6.4 9.7 0.00 0.03 0.00 66 1018.5
20260903152542 32 235 9.7 11.3 0.00 0.00 0.00 64 1018.4
20260903151532 32 214 6.4 9.7 0.00 0.00 0.00 66 1018.4
20260903150532 31 236 6.4 11.3 0.00 0.00 0.00 68 1018.4
20260903145552 31 204 6.4 9.7 0.00 0.00 0.00 71 1018.4
20260903144552 30 265 6.4 9.7 0.00 0.00 0.00 70 1018.4
20260903143523 30 199 4.8 8.0 0.00 0.00 0.00 73 1018.4
20260903142532 30 215 6.4 9.7 0.00 0.00 0.00 74 1018.3
20260903141542 30 210 6.4 9.7 0.00 0.00 0.00 74 1018.3
20260903140523 29 223 6.4 9.7 0.00 0.00 0.00 75 1018.4
20260903135542 28 216 6.4 9.7 0.00 0.00 0.00 76 1018.5
20260903134522 28 207 6.4 8.0 0.00 0.00 0.00 77 1018.6
20260903133522 28 203 6.4 8.0 0.00 0.00 0.00 78 1018.7
20260903132522 28 188 4.8 6.4 0.00 0.00 0.00 80 1018.7
20260903131522 27 217 3.2 4.8 0.00 0.00 0.00 81 1018.8
20260903130542 27 225 4.8 4.8 0.00 0.00 0.00 80 1018.8
20260903125522 27 215 1.6 4.8 0.00 0.00 0.00 83 1019.0
20260903124522 26 105 0.0 1.6 0.00 0.00 0.00 89 1019.0
20260903123542 24 0.0 1.6 0.00 0.00 0.00 93 1018.9
20260903122523 23 0.0 0.0 0.00 0.00 0.00 96 1018.9
20260903121543 23 0.0 0.0 0.00 0.00 0.00 99 1018.8
20260903120522 22 0.0 0.0 0.00 0.00 0.00 99 1018.7
20260903115533 22 0.0 0.0 0.00 0.00 0.00 99 1018.7
20260903114523 21 0.0 0.0 0.00 0.00 0.00 99 1018.6
20260903113543 21 0.0 0.0 0.00 0.00 0.00 99 1018.5
20260903112523 21 0.0 0.0 0.00 0.00 0.00 99 1018.4
20260903111522 21 0.0 0.0 0.00 0.00 0.00 99 1018.3
20260903110522 21 0.0 0.0 0.00 0.00 0.00 99 1018.2
20260903105523 21 0.0 0.0 0.00 0.00 0.00 99 1018.2
20260903104602 21 0.0 0.0 0.00 0.00 0.00 99 1018.1
20260903103523 21 0.0 0.0 0.00 0.00 0.00 99 1018.0
20260903102523 21 0.0 0.0 0.00 0.00 0.00 99 1018.0
20260903101522 21 0.0 0.0 0.00 0.00 0.00 99 1018.1
20260903100523 21 0.0 0.0 0.00 0.00 0.00 99 1018.1
20260903095522 21 0.0 0.0 0.00 0.00 0.00 98 1018.0
20260903094523 21 0.0 0.0 0.00 0.00 0.00 99 1018.0
20260903093523 21 0.0 0.0 0.00 0.00 0.00 98 1018.0
20260903092523 21 0.0 0.0 0.00 0.00 0.00 98 1018.1
20260903091523 21 0.0 0.0 0.00 0.00 0.00 98 1018.0
20260903090523 21 0.0 0.0 0.00 0.00 0.00 98 1018.0
20260903085523 21 0.0 0.0 0.00 0.00 0.00 98 1018.0
20260903084523 21 0.0 0.0 0.00 0.00 0.00 98 1017.9
20260903083523 21 0.0 0.0 0.00 0.00 0.00 98 1017.9
20260903082523 21 0.0 0.0 0.00 0.00 0.00 98 1017.8
20260903081543 22 0.0 0.0 0.00 0.00 0.00 98 1017.9
20260903080523 22 0.0 0.0 0.00 0.00 0.00 98 1017.9
20260903075523 22 0.0 0.0 0.00 0.00 0.00 98 1017.8
20260903074544 22 0.0 0.0 0.00 0.00 0.00 98 1017.8
20260903073523 22 0.0 0.0 0.00 0.00 0.00 98 1017.7
20260903072523 22 0.0 0.0 0.00 0.00 0.00 98 1017.7
20260903071523 22 0.0 0.0 0.00 0.00 0.00 97 1017.7
20260903070523 22 0.0 0.0 0.00 0.00 0.00 97 1017.7
20260903065544 22 0.0 0.0 0.00 0.00 0.00 97 1017.7
20260903064524 22 0.0 0.0 0.00 0.00 0.00 97 1017.6
20260903063544 22 0.0 0.0 0.00 0.00 0.00 97 1017.7
20260903062523 22 0.0 0.0 0.00 0.00 0.00 97 1017.8
20260903061523 22 0.0 0.0 0.00 0.00 0.00 97 1017.7
20260903060544 22 0.0 0.0 0.00 0.00 0.00 97 1017.7
20260903055524 23 0.0 0.0 0.00 0.00 0.00 97 1017.6
20260903054523 23 0.0 0.0 0.00 0.00 0.00 98 1017.6
20260903053534 23 0.0 0.0 0.00 0.00 0.00 97 1017.6
20260903052544 23 0.0 0.0 0.00 0.00 0.00 97 1017.5
20260903051523 22 0.0 0.0 0.00 0.00 0.00 97 1017.4
20260903050523 23 0.0 0.0 0.00 0.00 0.00 97 1017.4
20260903045524 23 0.0 0.0 0.00 0.00 0.00 97 1017.4
20260903044523 23 0.0 0.0 0.00 0.00 0.00 97 1017.3
20260903043524 23 0.0 0.0 0.00 0.00 0.00 97 1017.3
20260903042523 23 0.0 0.0 0.00 0.00 0.00 97 1017.4
20260903041524 23 0.0 0.0 0.00 0.00 0.00 97 1017.4
20260903040524 23 0.0 0.0 0.00 0.00 0.00 97 1017.4
20260903035523 23 0.0 0.0 0.00 0.00 0.00 96 1017.4
20260903034534 23 0.0 0.0 0.00 0.00 0.00 96 1017.4
20260903033524 23 0.0 0.0 0.00 0.00 0.00 96 1017.5
20260903032534 23 0.0 0.0 0.00 0.00 0.00 96 1017.5
20260903031524 23 0.0 0.0 0.00 0.00 0.00 96 1017.5
20260903030524 23 0.0 0.0 0.00 0.00 0.00 96 1017.5
20260903025524 24 0.0 0.0 0.00 0.00 0.00 95 1017.5
20260903024524 24 0.0 0.0 0.00 0.00 0.00 95 1017.6
20260903023523 24 0.0 0.0 0.00 0.00 0.00 95 1017.6
20260903022523 24 0.0 0.0 0.00 0.00 0.00 94 1017.7
20260903021524 25 0.0 0.0 0.00 0.00 0.00 94 1017.7
20260903020544 25 0.0 0.0 0.00 0.00 0.00 94 1017.6
20260903015524 25 0.0 0.0 0.00 0.00 0.00 93 1017.6
20260903014524 25 0.0 0.0 0.00 0.00 0.00 93 1017.6
20260903013524 25 0.0 0.0 0.00 0.00 0.00 92 1017.5
20260903012534 25 0.0 0.0 0.00 0.00 0.00 91 1017.4
20260903011555 25 108 0.0 1.6 0.00 0.00 0.00 92 1017.4
20260903010524 26 0.0 0.0 0.00 0.00 0.00 90 1017.2
20260903005535 26 0.0 0.0 0.00 0.00 0.00 90 1017.2
20260903004555 26 0.0 0.0 0.00 0.00 0.00 91 1017.1
20260903003615 27 0.0 0.0 0.00 0.00 0.00 88 1017.0
20260903002555 27 353 0.0 1.6 0.00 0.00 0.00 84 1017.0
20260903001514 28 0.0 0.0 0.00 0.00 0.00 81 1017.0
20260903000534 28 0.0 1.6 0.00 0.00 0.00 80 1017.0
20260902235554 29 0.0 0.0 0.00 0.00 0.00 77 1017.0
20260902234524 30 250 1.6 3.2 0.00 0.00 0.00 75 1017.0
20260902233525 30 222 3.2 4.8 0.00 0.00 0.00 73 1017.0
20260902232524 31 215 4.8 4.8 0.00 0.00 0.00 71 1017.0
20260902231545 33 215 3.2 4.8 0.00 0.00 0.00 68 1017.1
20260902230524 33 0.0 0.0 0.00 0.00 0.00 66 1017.1
20260902225524 33 0.0 0.0 0.00 0.00 0.00 65 1017.1
20260902224524 33 0.0 0.0 0.00 0.00 0.00 66 1017.2
20260902223524 33 0.0 0.0 0.00 0.00 0.00 66 1017.2
20260902222525 33 250 0.0 3.2 0.00 0.00 0.00 66 1017.2
20260902221525 33 204 4.8 6.4 0.00 0.00 0.00 61 1017.3
20260902220524 34 209 6.4 9.7 0.00 0.00 0.00 58 1017.4